Location: Smyrna_Hopewell
(35.6500°N, 81.0330°W)
Time: 09:24:24
(UTC-04:00)

Cosmos 2221 - Visible Passes

Search period start: 22 July 2014 00:00
Search period end: 01 August 2014 00:00
Orbit: 599 x 622 km, 82.5° (Epoch: 21 July)

Date Brightness Start Highest point End Pass type
(mag) Time Alt. Az. Time Alt. Az. Time Alt. Az.
22 Jul 2.4 04:30:48 45° SSW 04:32:04 77° W 04:36:28 10° N visible
23 Jul 5.1 03:08:46 13° E 03:09:34 14° E 03:11:44 10° NE visible
23 Jul 3.1 04:45:46 35° WSW 04:46:48 40° W 04:50:58 10° N visible
24 Jul 4.3 03:23:44 24° E 03:24:03 24° E 03:27:36 10° NE visible
24 Jul 3.9 05:00:44 21° W 05:01:38 23° WNW 05:05:07 10° NNW visible
25 Jul 3.4 03:38:40 44° E 03:38:40 44° E 03:42:48 10° NNE visible
25 Jul 4.5 05:15:40 12° W 05:16:32 13° WNW 05:18:33 10° NW visible
26 Jul 2.6 03:53:35 76° NNE 03:53:35 76° NNE 03:57:40 10° N visible
27 Jul 5.4 02:31:29 11° ENE 02:31:29 11° ENE 02:31:54 10° ENE visible
27 Jul 3.0 04:08:28 48° NW 04:08:28 48° NW 04:12:16 10° N visible
28 Jul 4.9 02:46:21 18° ENE 02:46:21 18° ENE 02:48:30 10° NE visible
28 Jul 3.8 04:23:21 27° WNW 04:23:21 27° WNW 04:26:34 10° NNW visible
29 Jul 4.4 03:01:13 28° NE 03:01:13 28° NE 03:03:52 10° NNE visible
29 Jul 4.5 04:38:12 16° WNW 04:38:12 16° WNW 04:40:21 10° NW visible
30 Jul 3.9 03:16:03 37° NNE 03:16:03 37° NNE 03:18:50 10° NNE visible
31 Jul 3.9 03:30:52 35° NNW 03:30:52 35° NNW 03:33:31 10° N visible
